This is the latest recevied weather packets stored in our database for station/object K5OLV. If no packets are shown the sender has not sent any weather packets the latest 10 day(s).
| Time | Temp. | Humidity | Pressure | Rain* | Wind** | Luminosity | Snow |
|---|---|---|---|---|---|---|---|
| 1788294468 | 32.78° C | 55% | 1017.8 hPa | 0 mm | - | 588 W/m² | - |
| 1788294163 | 32.78° C | 55% | 1017.5 hPa | 0 mm | - | 450 W/m² | - |
| 1788293859 | 32.22° C | 58% | 1017.7 hPa | 0 mm | - | 573 W/m² | - |
| 1788293553 | 32.22° C | 61% | 1017.9 hPa | 0 mm | - | 595 W/m² | - |
| 1788293253 | 32.78° C | 63% | 1017.9 hPa | 0 mm | - | 536 W/m² | - |
| 1788292948 | 32.22° C | 58% | 1018 hPa | 0 mm | - | 596 W/m² | - |
| 1788292646 | 32.78° C | 58% | 1017.8 hPa | 0 mm | - | 167 W/m² | - |
| 1788292340 | 33.33° C | 54% | 1017.9 hPa | 0 mm | - | 191 W/m² | - |
| 1788292036 | 33.89° C | 53% | 1017.9 hPa | 0 mm | - | 652 W/m² | - |
| 1788291730 | 34.44° C | 53% | 1018.1 hPa | 0 mm | - | 679 W/m² | - |
| 1788291427 | 33.33° C | 53% | 1018.1 hPa | 0 mm | - | 665 W/m² | - |
| 1788291120 | 33.89° C | 53% | 1018.1 hPa | 0 mm | - | 703 W/m² | - |
| 1788290815 | 34.44° C | 50% | 1018.2 hPa | 0 mm | - | 680 W/m² | - |
| 1788290510 | 32.78° C | 54% | 1018.3 hPa | 0 mm | - | 640 W/m² | - |
| 1788290206 | 31.67° C | 58% | 1018.2 hPa | 0 mm | - | 680 W/m² | - |
| 1788289902 | 31.67° C | 56% | 1018.3 hPa | 0 mm | - | 163 W/m² | - |
| 1788289598 | 31.67° C | 58% | 1018.3 hPa | 0 mm | - | 500 W/m² | - |
| 1788289297 | 32.78° C | 56% | 1018.4 hPa | 0 mm | - | 694 W/m² | - |
| 1788288995 | 32.78° C | 56% | 1018.4 hPa | 0 mm | - | 693 W/m² | - |
| 1788288694 | 31.67° C | 58% | 1018.5 hPa | 0 mm | - | 706 W/m² | - |
| 1788288390 | 31.67° C | 59% | 1018.6 hPa | 0 mm | - | 687 W/m² | - |
| 1788288085 | 31.11° C | 59% | 1018.7 hPa | 0 mm | - | 672 W/m² | - |
| 1788287780 | 31.11° C | 61% | 1018.7 hPa | 0 mm | - | 666 W/m² | - |
| 1788287499 | 31.67° C | 61% | 1018.6 hPa | 0 mm | - | 649 W/m² | - |
| 1788287171 | 31.67° C | 60% | 1018.9 hPa | 0 mm | - | 686 W/m² | - |
* Rain latest hour (hover to see other rain measurements)
** Current wind speed in m/s (hover to see current wind gust speed)